Printer-friendly version

IAU Minor Planet Center

Minor Planet Center

MPEC 2005-G64 : 2005 GO59

The following Minor Planet Electronic Circular may be linked-to from your own Web pages, but must not otherwise be redistributed electronically.


Read MPEC 2005-G63 Read MPEC 2005-G65


M.P.E.C. 2005-G64                                Issued 2005 Apr.  9, 09:23 UT

     The Minor Planet Electronic Circulars contain information on unusual
         minor planets and routine data on comets.  They are published
   on behalf of Commission 20 of the International Astronomical Union by the
          Minor Planet Center, Smithsonian Astrophysical Observatory,
                          Cambridge, MA 02138, U.S.A.

                  Supported in part by the Brinson Foundation
             Prepared using the Tamkin Foundation Computer Network

                              MPC@CFA.HARVARD.EDU
          URL http://cfa-www.harvard.edu/iau/mpc.html  ISSN 1523-6714

                                   2005 GO59

Observations:
     K05G59O* C2005 04 08.39116 14 06 43.08 +05 45 06.5          19.0   EG064704
     K05G59O  C2005 04 08.40078 14 06 39.91 +05 45 01.5          19.5   EG064704
     K05G59O  C2005 04 08.41034 14 06 36.72 +05 44 57.1          19.2   EG064704
     K05G59O  C2005 04 08.41993 14 06 33.51 +05 44 53.2          19.8   EG064704
     K05G59O  C2005 04 08.43004 14 06 30.19 +05 44 48.6          19.0   EG064704
     K05G59O  C2005 04 08.96877 14 03 40.50 +05 40 26.6                 EG064J95
     K05G59O  C2005 04 08.97655 14 03 37.96 +05 40 22.3                 EG064J95
     K05G59O  C2005 04 08.98432 14 03 35.53 +05 40 18.6          19.4 R EG064J95
     K05G59O  C2005 04 09.02924 14 03 20.43 +05 39 57.6          18.8 R EG064A50
     K05G59O  C2005 04 09.03071 14 03 19.95 +05 39 57.4          18.8 R EG064A50
     K05G59O  C2005 04 09.03218 14 03 19.54 +05 39 56.1          18.3 R EG064A50
     K05G59O  C2005 04 09.03365 14 03 19.13 +05 39 55.9          18.6 R EG064A50
     K05G59O  C2005 04 09.03512 14 03 18.62 +05 39 54.4          18.6 R EG064A50
     K05G59O  C2005 04 09.09896 14 02 58.99 +05 39 23.2                 EG064J95
     K05G59O  C2005 04 09.10486 14 02 57.15 +05 39 20.3                 EG064J95
     K05G59O  C2005 04 09.11076 14 02 55.36 +05 39 18.1          19.5 R EG064J95
     K05G59O  C2005 04 09.16111 14 02 40.94 +05 38 58.3          19.2 R EG064932
     K05G59O  C2005 04 09.17361 14 02 36.97 +05 38 52.1          19.2 R EG064932
     K05G59O  C2005 04 09.18362 14 02 33.84 +05 38 47.5          19.3 R EG064932
     K05G59O  C2005 04 09.19418 14 02 30.98 +05 38 43.4          19.1 R EG064734
     K05G59O  C2005 04 09.19807 14 02 29.76 +05 38 42.3          19.2 R EG064734
     K05G59O  C2005 04 09.25253 14 02 13.04 +05 38 19.3          18.9 R EG064854
     K05G59O  C2005 04 09.25637 14 02 11.75 +05 38 16.9          18.9 R EG064854
     K05G59O  C2005 04 09.26021 14 02 10.64 +05 38 15.4          18.9 R EG064854

Observer details:
704 Lincoln Laboratory ETS, New Mexico.  Observers M. Blythe, F. Shelly,
    M. Bezpalko, R. Huber, L. Manguso, D. Torres, R. Kracke, M. McCleary,
    H. Stange, A. Milner.  Measurers J. Stuart, R. Sayer, J. Evans, J. Kommers.
    1.0-m f/2.15 reflector + CCD.
734 Farpoint Observatory.  Observer G. Hug.  0.7-m reflector + CCD.
854 Sabino Canyon Observatory, Tucson.  Observer J. E. McGaha.  0.36-m f/10.0
    Schmidt-Cassegrain + CCD.
932 John J. McCarthy Obs., New Milford.  Observers M. Robson, D. Cartolano,
    R. Stewart, C. Tirreno.  Measurers M. Robson, K. Sullivan.  0.4-m f/7.3
    Schmidt-Cassegrain + CCD.
A50 Andrushivka Astronomical Observatory.  Observers O. Gerashchenko,
    Y. Ivashchenko.  0.6-m f/2.4 reflector + CCD.
J95 Great Shefford.  Observer P. Birtwhistle.  0.30-m f/6.3 Schmidt-Cassegrain
    + CCD.

Orbital elements:
2005 GO59                                                            PHA 0.017
Epoch 2005 Mar. 31.0 TT = JDT 2453460.5                 MPC
M  24.86798              (2000.0)            P               Q
n   0.40833609     Peri.   11.30574     +0.12554120     -0.98863705
a   1.7993854      Node    71.52313     +0.90329018     +0.07944355
e   0.7271518      Incl.    5.00111     +0.41025147     +0.12761466
P   2.41           H   20.6           G   0.15
From 24 observations 2005 Apr. 8-9.

Ephemeris:
2005 GO59                a,e,i = 1.80, 0.73, 5                   q = 0.4910
Date    TT    R. A. (2000) Decl.     Delta      r     Elong.  Phase     V
2005 04 10    13 58.48   +05 32.6    0.306    1.297   162.7    13.3    19.4
2005 04 12    13 49.34   +05 16.7    0.327    1.321   164.5    11.7    19.5
2005 04 14    13 41.31   +05 00.8    0.350    1.344   165.3    10.9    19.6
2005 04 16    13 34.25   +04 44.9    0.373    1.368   165.2    10.8    19.8
2005 04 18    13 28.05   +04 29.2    0.397    1.391   164.2    11.3    20.0
2005 04 20    13 22.60   +04 13.5    0.422    1.413   162.8    12.2    20.2
2005 04 22    13 17.83   +03 57.9    0.448    1.436   160.9    13.2    20.4
2005 04 24    13 13.64   +03 42.4    0.474    1.458   158.9    14.4    20.6
2005 04 26    13 09.99   +03 26.9    0.501    1.480   156.8    15.5    20.8
2005 04 28    13 06.80   +03 11.6    0.529    1.502   154.7    16.7    21.0
2005 04 30    13 04.04   +02 56.3    0.558    1.524   152.5    17.8    21.2
2005 05 02    13 01.67   +02 41.0    0.587    1.545   150.4    18.8    21.3
2005 05 04    12 59.64   +02 25.8    0.616    1.567   148.3    19.8    21.5
2005 05 06    12 57.93   +02 10.6    0.647    1.587   146.2    20.7    21.7
2005 05 08    12 56.50   +01 55.3    0.678    1.608   144.2    21.6    21.8
2005 05 10    12 55.35   +01 40.0    0.709    1.629   142.2    22.4    22.0

Timothy B. Spahr             (C) Copyright 2005 MPC           M.P.E.C. 2005-G64

Read MPEC 2005-G63 Read MPEC 2005-G65


Our Web policy. Index to the CBAT/MPC/ICQ pages.


Valid HTML 4.01!